sat.trackr.live / text

‹ back to catalog

STARLINK-37524

NORAD 68842 · 2026-094D

PAYLOAD ACTIVE UNKNOWN

§ Identity

Operator
Country
US
Launch date
2026-04-26
Launch site
AFWTR
Launch vehicle
Mass (kg)
RCS (m²)

Purposes: comms

External: N2YO · Heavens-Above · Gunter

§ Orbital elements

Epoch: 2026-09-19T23:20:43.281888Z

Period
93.91 min
Inclination
97.2846°
Eccentricity
0.0001266
Mean motion
15.33459943 rev/d
Perigee alt
464.6 km
Apogee alt
466.4 km
Semi-major
6,843.6 km
B*
6.5592e-4
RAAN
276.0549°
Arg perigee
78.0902°
Mean anomaly
282.0482°
Rev number
2,257

§ Raw data

STARLINK-375241 68842U 26094D   26262.97272317  .00021170  00000+0  65592-3 0  99952 68842  97.2846 276.0549 0001266  78.0902 282.0482 15.33459943 22578

JSON: /api/v1/satellites/68842 · /tle

For live sub-satellite position, see the globe view (requires WebGL).

§ Visibility from observer

Set your observer location to see the next 7 days of passes ≥ 10°. The values pass through the URL so the page stays shareable.

No JS? Fill the form by hand. The geolocation button needs JavaScript.